sat.trackr.live / text

‹ back to catalog

STARLINK-5424

NORAD 54811 · 2022-175BF

PAYLOAD ACTIVE UNKNOWN

§ Identity

Operator
Country
US
Launch date
2022-12-17
Launch site
AFETR
Launch vehicle
Mass (kg)
RCS (m²)

Purposes: comms

External: N2YO · Heavens-Above · Gunter

§ Orbital elements

Epoch: 2026-09-20T10:25:55.937280Z

Period
93.85 min
Inclination
53.1588°
Eccentricity
0.0001304
Mean motion
15.34394577 rev/d
Perigee alt
461.8 km
Apogee alt
463.6 km
Semi-major
6,840.9 km
B*
4.4369e-5
RAAN
217.6776°
Arg perigee
97.0542°
Mean anomaly
263.0609°
Rev number
20,976

§ Raw data

STARLINK-54241 54811U 22175BF  26263.43467520  .00001123  00000+0  44369-4 0  99922 54811  53.1588 217.6776 0001304  97.0542 263.0609 15.34394577209760

JSON: /api/v1/satellites/54811 · /tle

For live sub-satellite position, see the globe view (requires WebGL).

§ Visibility from observer

Set your observer location to see the next 7 days of passes ≥ 10°. The values pass through the URL so the page stays shareable.

No JS? Fill the form by hand. The geolocation button needs JavaScript.